sat.trackr.live / text

‹ back to catalog

STARLINK-34152

NORAD 64000 · 2025-101G

PAYLOAD ACTIVE UNKNOWN

§ Identity

Operator
Country
US
Launch date
2025-05-14
Launch site
AFETR
Launch vehicle
Mass (kg)
RCS (m²)

Purposes: comms

External: N2YO · Heavens-Above · Gunter

§ Orbital elements

Epoch: 2026-09-20T21:59:50.918784Z

Period
94.27 min
Inclination
42.9975°
Eccentricity
0.0000266
Mean motion
15.27577289 rev/d
Perigee alt
482.9 km
Apogee alt
483.2 km
Semi-major
6,861.2 km
B*
8.7974e-5
RAAN
335.3402°
Arg perigee
5.4482°
Mean anomaly
354.6373°
Rev number
7,691

§ Raw data

STARLINK-341521 64000U 25101G   26263.91656156  .00002160  00000+0  87974-4 0  99942 64000  42.9975 335.3402 0000266   5.4482 354.6373 15.27577289 76912

JSON: /api/v1/satellites/64000 · /tle

For live sub-satellite position, see the globe view (requires WebGL).

§ Visibility from observer

Set your observer location to see the next 7 days of passes ≥ 10°. The values pass through the URL so the page stays shareable.

No JS? Fill the form by hand. The geolocation button needs JavaScript.